Somersworth, NH

10:43 AM EST on January 22, 2017 (GMT -0500)
Skyhaven

Weather History for KDAW - January, 2014

Change the Weather History Date:

Thursday, January 2, 2014

  Actual Average (KPSM) Record (KPSM)
Temperature  
Mean Temperature 6 °F -  
Max Temperature 14 °F 34 °F 61 °F (1979)
Min Temperature -2 °F 20 °F -4 °F (1999)
Degree Days  
Heating Degree Days 59    
Moisture  
Dew Point -3 °F    
Average Humidity 76    
Maximum Humidity 84    
Minimum Humidity 64    
Precipitation  
Precipitation 0.08 in - - ()
Sea Level Pressure  
Sea Level Pressure 30.21 in    
Wind  
Wind Speed 8 mph (NNE)    
Max Wind Speed 17 mph    
Max Gust Speed 25 mph    
Visibility 2 miles    
Events Snow    
Averages and records for this station are not official NWS values.
T = Trace of Precipitation, MM = Missing Value Source: NWS Daily Summary

Daily Weather History Graph

Daily Weather History Graph

Search for Another Location

Airport or City:

Trip Planner

Search our weather history database for the weather conditions in past years. The results will help you decide how hot, cold, wet, or windy it might be!

Date:

Astronomy

Jan. 02, 2014 Rise Set
Actual Time 7:16 AM EST 4:19 PM EST
Civil Twilight 6:43 AM EST 4:52 PM EST
Nautical Twilight 6:07 AM EST 5:27 PM EST
Astronomical Twilight 5:33 AM EST 6:02 PM EST
Moon 7:51 AM EST (1/2) 6:16 PM EST (1/2)
Length of Visible Light 10h 08m
Length of Day
9h 03m
New Moon, 2% of the Moon is Illuminated
Jan 2
New Moon
Jan 7
First Quarter
Jan 15
Full
Jan 24
Last Quarter
Jan 30
New

Hourly Weather History & Observations

Time (EST) Temp. Windchill Dew Point Humidity Pressure Visibility Wind Dir Wind Speed Gust Speed Precip Events Conditions
12:51 AM 14.0 °F 3.9 °F 3.9 °F 64% 30.35 in 10.0 mi NNW 6.9 mph - N/A   Overcast
1:51 AM 14.0 °F 6.5 °F 3.9 °F 64% 30.35 in 10.0 mi NNW 4.6 mph - N/A   Overcast
2:51 AM 12.9 °F 6.9 °F 7.0 °F 77% 30.35 in 3.0 mi NE 3.5 mph - 0.00 in Snow Light Snow
3:06 AM 12.9 °F - 7.0 °F 77% 30.34 in 2.5 mi Calm Calm - 0.00 in Snow Light Snow
3:51 AM 12.0 °F 2.7 °F 8.1 °F 84% 30.34 in 1.2 mi NNE 5.8 mph - 0.00 in Snow Light Snow
4:22 AM 12.0 °F 4.1 °F 8.1 °F 84% 30.33 in 2.5 mi NE 4.6 mph - 0.01 in Snow Light Snow
4:43 AM 12.0 °F 5.9 °F 7.0 °F 80% 30.33 in 1.5 mi NNE 3.5 mph - 0.01 in Snow Light Snow
4:51 AM 10.9 °F 2.9 °F 7.0 °F 84% 30.35 in 1.0 mi NE 4.6 mph - 0.01 in Snow Light Snow
5:40 AM 9.0 °F -2.2 °F 3.9 °F 80% 30.34 in 2.0 mi NE 6.9 mph - 0.01 in Snow Light Snow
5:48 AM 8.6 °F -1.3 °F 3.2 °F 79% 30.34 in 3.0 mi NE 5.8 mph - 0.01 in Snow Light Snow
5:51 AM 9.0 °F -2.2 °F 3.9 °F 80% 30.35 in 3.0 mi NE 6.9 mph - 0.01 in Snow Light Snow
6:06 AM 9.0 °F -3.2 °F 3.9 °F 80% 30.34 in 2.0 mi North 8.1 mph - 0.00 in Snow Light Snow
6:28 AM 7.0 °F -6.6 °F 1.9 °F 80% 30.34 in 1.8 mi NE 9.2 mph - 0.00 in Snow Light Snow
6:49 AM 6.8 °F -4.8 °F 1.4 °F 79% 30.34 in 2.0 mi NE 6.9 mph - 0.01 in Snow Light Snow
6:51 AM 6.1 °F -4.3 °F 1.0 °F 80% 30.35 in 2.0 mi NE 5.8 mph - 0.01 in Snow Light Snow
7:02 AM 6.1 °F -5.6 °F 1.0 °F 80% 30.34 in 1.5 mi NNE 6.9 mph - 0.00 in Snow Light Snow
7:51 AM 5.0 °F -9.1 °F -0.0 °F 80% 30.35 in 1.2 mi NNE 9.2 mph - 0.00 in Snow Light Snow
8:06 AM 5.0 °F -8.1 °F -0.9 °F 76% 30.33 in 2.5 mi NNE 8.1 mph - 0.00 in Snow Light Snow
8:14 AM 5.0 °F -11.6 °F -0.9 °F 76% 30.33 in 2.0 mi NNE 12.7 mph - 0.00 in Snow Light Snow
8:21 AM 3.9 °F -10.4 °F -0.9 °F 80% 30.34 in 1.8 mi NNE 9.2 mph - 0.00 in Snow Light Snow
8:41 AM 3.9 °F -11.3 °F -0.9 °F 80% 30.34 in 1.0 mi NNE 10.4 mph - 0.00 in Snow Light Snow
8:51 AM 3.9 °F -11.3 °F -2.0 °F 76% 30.35 in 1.0 mi NNE 10.4 mph - 0.00 in Snow Light Snow
9:10 AM 3.9 °F -10.4 °F -0.9 °F 80% 30.34 in 0.8 mi NNE 9.2 mph - 0.00 in Snow Light Snow
9:32 AM 3.9 °F -8.2 °F -2.0 °F 76% 30.33 in 1.0 mi NNE 6.9 mph - 0.00 in Snow Light Snow
9:51 AM 3.9 °F -13.7 °F -2.0 °F 76% 30.35 in 0.8 mi NE 13.8 mph 18.4 mph 0.00 in Snow Light Snow
10:17 AM 3.0 °F -14.1 °F -2.9 °F 76% 30.32 in 1.0 mi NNE 12.7 mph - 0.01 in Snow Light Snow
10:51 AM 3.0 °F -13.3 °F -2.9 °F 76% 30.31 in 1.2 mi NNE 11.5 mph 23.0 mph 0.01 in Snow Light Snow
11:46 AM 1.4 °F -13.5 °F -4.0 °F 78% 30.25 in 0.5 mi NNE 9.2 mph - 0.00 in Snow Snow
11:51 AM 1.9 °F -15.5 °F -2.9 °F 80% 30.25 in 0.5 mi NNE 12.7 mph - 0.00 in Snow Snow
12:14 PM 1.9 °F -13.8 °F -4.0 °F 76% 30.22 in 0.5 mi NNE 10.4 mph 18.4 mph 0.00 in Snow Snow
12:31 PM 1.9 °F -12.9 °F -2.9 °F 80% 30.21 in 0.8 mi NNE 9.2 mph - 0.00 in Snow Light Snow
12:39 PM 1.9 °F -15.5 °F -4.0 °F 76% 30.20 in 1.2 mi NE 12.7 mph - 0.00 in Snow Light Snow
12:47 PM 1.4 °F -13.5 °F -4.0 °F 78% 30.20 in 1.2 mi NNE 9.2 mph 17.3 mph 0.01 in Snow Light Snow
12:51 PM 1.9 °F -12.9 °F -4.0 °F 76% 30.21 in 1.2 mi NNE 9.2 mph - 0.01 in Snow Light Snow
1:08 PM 1.9 °F -13.8 °F -5.1 °F 72% 30.20 in 3.0 mi NNE 10.4 mph - 0.00 in Snow Light Snow
1:42 PM 1.0 °F -17.3 °F -7.1 °F 69% 30.18 in 1.8 mi North 13.8 mph 19.6 mph 0.00 in Snow Light Snow
1:51 PM -0.0 °F -18.0 °F -7.1 °F 72% 30.19 in 1.8 mi NNE 12.7 mph 25.3 mph 0.00 in Snow Light Snow
2:00 PM -0.0 °F -15.3 °F -7.1 °F 72% 30.17 in 2.5 mi NNE 9.2 mph 20.7 mph 0.00 in Snow Light Snow
2:10 PM 1.0 °F -18.0 °F -6.0 °F 72% 30.17 in 3.0 mi NNE 15.0 mph 19.6 mph 0.00 in Snow Light Snow
2:51 PM 1.0 °F -14.0 °F -6.0 °F 72% 30.17 in 5.0 mi NNE 9.2 mph 19.6 mph 0.00 in Snow Light Snow
3:45 PM -0.4 °F -18.4 °F -7.6 °F 72% 30.12 in 1.8 mi NNE 12.7 mph 23.0 mph 0.00 in Snow Light Snow
3:51 PM -0.0 °F -17.1 °F -7.1 °F 72% 30.13 in 1.2 mi NNE 11.5 mph 21.9 mph 0.00 in Snow Light Snow
4:06 PM -0.0 °F -18.0 °F -7.1 °F 72% 30.12 in 0.5 mi NNE 12.7 mph 21.9 mph 0.00 in Snow Snow
4:25 PM -0.9 °F -20.6 °F -7.1 °F 75% 30.11 in 1.8 mi NNE 15.0 mph 23.0 mph 0.00 in Snow Light Snow
4:51 PM -0.9 °F -16.4 °F -7.1 °F 75% 30.12 in 1.0 mi NNE 9.2 mph 23.0 mph 0.00 in Snow Light Snow
5:42 PM -2.0 °F -19.6 °F -8.0 °F 76% 30.09 in 2.5 mi North 11.5 mph 21.9 mph 0.00 in Snow Light Snow
5:51 PM -2.0 °F -19.6 °F -8.0 °F 76% 30.11 in 2.0 mi North 11.5 mph 20.7 mph 0.00 in Snow Light Snow
6:01 PM -2.0 °F -21.2 °F -8.0 °F 76% 30.09 in 1.2 mi NNE 13.8 mph 25.3 mph 0.00 in Snow Light Snow
6:51 PM -2.0 °F -18.7 °F -8.0 °F 76% 30.09 in 1.0 mi NNE 10.4 mph 25.3 mph 0.01 in Snow Light Snow
7:21 PM -2.0 °F -21.2 °F -8.0 °F 76% 30.06 in 1.2 mi NNE 13.8 mph 23.0 mph 0.00 in Snow Light Snow
7:51 PM -2.0 °F -20.5 °F -9.0 °F 72% 30.06 in 1.2 mi NNE 12.7 mph 21.9 mph 0.00 in Snow Light Snow
8:49 PM -2.2 °F -20.7 °F -9.4 °F 71% 30.01 in 0.8 mi NNE 12.7 mph 24.2 mph 0.00 in Snow Light Snow
8:51 PM -2.9 °F -20.8 °F -9.0 °F 75% 30.03 in 0.8 mi NNE 11.5 mph 23.0 mph 0.00 in Snow Light Snow
9:23 PM -2.0 °F -22.6 °F -8.0 °F 76% 29.99 in 1.0 mi North 16.1 mph 23.0 mph 0.01 in Snow Light Snow
9:41 PM -2.0 °F -18.7 °F -8.0 °F 76% 29.98 in 0.8 mi North 10.4 mph 20.7 mph 0.01 in Snow Light Snow
9:51 PM -2.9 °F -24.4 °F -9.0 °F 75% 29.99 in 0.8 mi North 17.3 mph 25.3 mph 0.01 in Snow Light Snow
10:37 PM -2.9 °F -23.1 °F -9.0 °F 75% 29.94 in 1.0 mi North 15.0 mph 23.0 mph 0.01 in Snow Light Snow
10:51 PM -2.9 °F -23.8 °F -9.9 °F 72% 29.95 in 1.0 mi North 16.1 mph 24.2 mph 0.01 in Snow Light Snow
11:03 PM -2.9 °F -23.8 °F -9.9 °F 72% 29.93 in 1.0 mi North 16.1 mph 24.2 mph 0.00 in Snow Light Snow
11:51 PM -2.9 °F -21.6 °F -9.0 °F 75% 29.92 in 1.5 mi North 12.7 mph 24.2 mph 0.00 in Snow Light Snow